Terminal Aerodrome Forecast
Issued by NWS Oklahoma City, OK

Home | Current Version | Previous Version | Text Only | Print | Product List | Glossary On
Versions: 1 2 3 4 5 6 7 8 9 10 11 12 13 14 15 16 17 18 19 20 21 22 23 24
000
FTUS44 KOUN 172334
TAFOUN
TAF
KOUN 172334Z 1800/1824 11008KT 2SM -RA BR OVC006
     FM180400 13006KT 2SM -DZ BR OVC003
     FM181800 01007KT 3SM -DZ BR OVC012=

USA.gov is the U.S. government's official web portal to all federal, state and local government web resources and services.